"startDT [UTC]","vpos","CH4 [ppm]","stdev(CH4) [ppm]","CO2 [ppm]","stdev(CO2) [ppm]","H2O_reported [%]","stdev(H2O_reported)","CavityPressure [torr]","CavityTemp [C]","OutletValve","CH4_dry [ppm]","CO2_dry [ppm]","DasTemp [C]","EtalonTemp [C]","WarmBoxTemp [C]","MPVPosition","T_ECpre [C]","T_EC1 [C]","T_EC2 [C]","p_inlet [hPa]","p_in [hPa]","p_out [hPa]","T_inlet [C]","RH_inlet [%]","dwpt_inlet [C]","T_vent [C]","RH_vent [%]","dwpt_vent [C]","flow_vent [l min-1]","flow_inlet [l min-1]","dwpt_sample [C]","T_room [C]"
2014-12-06 00:00:00,0.0,1.95322,0.00035,403.303,0.036,0.0319,0.0021,140.001,45.000,30008.64490,1.95382,403.458,30.833,45.068,45.000,0.00,0.09,-272.70,-272.74,-4,321,2,17.2,1.4,-36.5,17.6,1.6,-34.5,5.73,2.90,-19.8,23.7
2014-12-06 00:01:00,0.0,1.95316,0.00044,403.308,0.023,0.0328,0.0020,140.001,45.000,30011.40301,1.95379,403.467,30.840,45.068,45.000,0.00,0.09,-272.70,-272.73,-6,321,2,17.2,1.4,-36.3,17.6,1.6,-34.6,5.73,2.90,-19.8,23.7
2014-12-06 00:02:00,0.0,1.95294,0.00040,403.280,0.035,0.0332,0.0025,139.997,45.000,30010.37693,1.95360,403.441,30.842,45.068,45.000,0.00,0.09,-272.69,-272.74,-7,320,2,17.2,1.4,-36.2,17.6,1.6,-34.7,5.73,2.89,-19.8,23.7
2014-12-06 00:03:00,0.0,1.95264,0.00039,403.277,0.030,0.0323,0.0018,140.000,45.000,30012.93934,1.95325,403.434,30.830,45.068,45.000,0.00,0.09,-272.70,-272.74,-7,320,2,17.2,1.4,-36.0,17.6,1.6,-34.7,5.73,2.88,-19.8,23.7
2014-12-06 00:04:00,0.0,1.95247,0.00034,403.281,0.028,0.0333,0.0018,140.000,45.000,30014.52554,1.95313,403.443,30.816,45.068,45.000,0.00,0.09,-272.69,-272.73,-7,320,2,17.2,1.4,-36.0,17.6,1.6,-34.7,5.73,2.88,-19.8,23.7
2014-12-06 00:05:00,0.0,1.95279,0.00030,403.282,0.029,0.0338,0.0018,139.999,45.000,30016.68296,1.95343,403.444,30.817,45.068,45.000,0.00,0.09,-272.69,-272.73,-7,320,2,17.2,1.4,-36.0,17.6,1.6,-34.7,5.73,2.88,-19.8,23.6
2014-12-06 00:06:00,0.0,1.95269,0.00047,403.290,0.026,0.0338,0.0017,139.998,45.000,30014.01887,1.95335,403.454,30.827,45.068,45.000,0.00,0.09,-272.70,-272.74,-6,319,2,17.2,1.4,-36.0,17.6,1.6,-34.7,5.73,2.89,-19.8,23.6
2014-12-06 00:07:00,0.0,1.95247,0.00038,403.276,0.031,0.0321,0.0015,139.997,45.000,30012.47140,1.95309,403.431,30.840,45.068,45.000,0.00,0.09,-272.69,-272.74,-5,319,2,17.2,1.4,-36.0,17.6,1.6,-34.7,5.73,2.89,-19.8,23.6
2014-12-06 00:08:00,0.0,1.95266,0.00047,403.278,0.019,0.0333,0.0015,139.997,45.000,30016.11610,1.95330,403.440,30.836,45.067,45.000,0.00,0.09,-272.70,-272.73,-3,319,2,17.1,1.4,-35.9,17.6,1.6,-34.7,5.73,2.87,-19.8,23.6
2014-12-06 00:09:00,0.0,1.95247,0.00031,403.284,0.036,0.0329,0.0015,140.002,45.000,30013.76539,1.95309,403.443,30.837,45.067,45.000,0.00,0.09,-272.70,-272.74,-2,319,2,17.2,1.4,-35.9,17.6,1.6,-34.7,5.73,2.85,-19.8,23.6
2014-12-06 00:10:00,0.0,1.95267,0.00059,403.285,0.031,0.0330,0.0016,140.002,45.000,30011.41566,1.95335,403.445,30.854,45.067,45.000,0.00,0.09,-272.70,-272.75,-0,319,2,17.1,1.4,-36.1,17.6,1.6,-34.6,5.73,2.83,-19.8,23.6
2014-12-06 00:11:00,0.0,1.95285,0.00052,403.291,0.047,0.0322,0.0017,139.997,45.000,30001.92796,1.95341,403.446,30.828,45.067,45.000,0.00,0.09,-272.70,-272.74,0,318,2,17.1,1.4,-36.3,17.6,1.6,-34.6,5.73,2.78,-19.8,23.6
2014-12-06 00:12:00,0.0,1.95319,0.00057,403.320,0.034,0.0322,0.0014,140.000,45.000,30006.64825,1.95382,403.476,30.840,45.067,45.000,0.00,0.09,-272.70,-272.74,-0,319,2,17.1,1.4,-36.2,17.6,1.6,-34.6,5.73,2.71,-19.8,23.6
2014-12-06 00:13:00,0.0,1.95317,0.00056,403.342,0.032,0.0321,0.0013,139.998,45.000,30012.81829,1.95376,403.498,30.819,45.067,45.000,0.00,0.09,-272.71,-272.74,-1,320,2,17.1,1.4,-36.3,17.6,1.6,-34.5,5.73,2.67,-19.8,23.6
2014-12-06 00:14:00,0.0,1.95371,0.00033,403.340,0.032,0.0316,0.0020,139.998,45.000,30007.25695,1.95432,403.495,30.813,45.067,45.000,0.00,0.09,-272.70,-272.74,-3,320,2,17.1,1.4,-36.5,17.5,1.6,-34.5,5.73,2.60,-19.8,23.6
2014-12-06 00:15:00,0.0,1.95372,0.00046,403.359,0.029,0.0310,0.0015,139.996,45.000,30003.47148,1.95431,403.508,30.805,45.068,45.000,0.00,0.09,-272.69,-272.73,-4,320,2,17.1,1.4,-36.6,17.5,1.6,-34.5,5.73,2.53,-19.8,23.6
2014-12-06 00:16:00,0.0,1.95313,0.00036,403.344,0.035,0.0309,0.0019,140.001,45.000,30003.18816,1.95375,403.494,30.788,45.068,45.000,0.00,0.09,-272.70,-272.73,-6,320,2,17.1,1.3,-36.9,17.6,1.6,-34.6,5.73,2.43,-19.8,23.7
2014-12-06 00:17:00,0.0,1.95318,0.00037,403.365,0.033,0.0306,0.0017,139.997,45.000,30008.83063,1.95375,403.513,30.781,45.068,45.001,0.00,0.09,-272.70,-272.73,-7,320,2,17.1,1.3,-36.9,17.5,1.6,-34.6,5.73,2.31,-19.9,23.7
2014-12-06 00:18:00,0.0,1.95392,0.00074,403.404,0.027,0.0307,0.0020,139.999,45.000,29999.03919,1.95445,403.554,30.807,45.068,45.001,0.00,0.09,-272.69,-272.73,-7,318,2,17.1,1.3,-36.9,17.6,1.6,-34.6,5.73,2.21,-19.9,23.7
2014-12-06 00:19:00,0.0,1.95398,0.00083,403.411,0.048,0.0302,0.0014,139.999,45.000,30004.45220,1.95461,403.558,30.812,45.068,45.000,0.00,0.09,-272.69,-272.74,-6,319,2,17.1,1.3,-37.1,17.6,1.6,-34.4,5.73,2.08,-19.8,23.7
2014-12-06 00:20:00,0.0,1.95334,0.00065,403.363,0.034,0.0304,0.0016,139.999,45.000,30007.39561,1.95394,403.510,30.813,45.068,45.000,0.00,0.09,-272.69,-272.74,-5,318,2,17.1,1.3,-37.1,17.6,1.6,-34.4,5.73,1.99,-19.8,23.6
2014-12-06 00:21:00,0.0,1.95345,0.00025,403.380,0.026,0.0298,0.0017,140.001,45.000,30004.86046,1.95403,403.524,30.813,45.068,45.000,0.00,0.09,-272.68,-272.73,-3,318,2,17.1,1.3,-37.1,17.6,1.6,-34.4,5.73,1.91,-19.9,23.6
2014-12-06 00:22:00,0.0,1.95332,0.00049,403.377,0.036,0.0304,0.0015,139.998,45.000,30006.37250,1.95388,403.522,30.816,45.068,45.000,0.00,0.09,-272.69,-272.74,-1,319,2,17.1,1.3,-37.1,17.6,1.6,-34.4,5.73,1.83,-19.8,23.6
2014-12-06 00:23:00,0.0,1.95295,0.00061,403.389,0.021,0.0298,0.0019,140.000,45.000,30007.16563,1.95354,403.533,30.832,45.068,45.000,0.00,0.09,-272.68,-272.74,-0,319,2,17.1,1.3,-37.1,17.6,1.6,-34.4,5.73,1.76,-19.9,23.6
2014-12-06 00:24:00,0.0,1.95290,0.00054,403.386,0.031,0.0300,0.0016,140.001,45.000,30008.57049,1.95349,403.531,30.870,45.068,45.000,0.00,0.09,-272.68,-272.74,0,320,2,17.1,1.3,-37.1,17.6,1.6,-34.4,5.73,1.70,-19.9,23.6
2014-12-06 00:25:00,0.0,1.95292,0.00054,403.413,0.038,0.0300,0.0012,140.000,45.000,30012.53781,1.95351,403.558,30.874,45.067,45.000,0.00,0.09,-272.68,-272.73,-0,321,2,17.1,1.3,-37.0,17.6,1.6,-34.4,5.73,1.65,-19.9,23.6
2014-12-06 00:26:00,0.0,1.95288,0.00031,403.397,0.033,0.0304,0.0016,140.001,45.000,30014.87375,1.95343,403.545,30.868,45.067,44.999,0.00,0.09,-272.69,-272.74,-1,322,2,17.1,1.3,-36.9,17.6,1.6,-34.4,5.73,1.63,-19.8,23.6
2014-12-06 00:27:00,0.0,1.95326,0.00047,403.381,0.034,0.0297,0.0014,139.999,45.000,30015.37008,1.95384,403.525,30.854,45.067,44.999,0.00,0.09,-272.69,-272.74,-2,322,2,17.1,1.3,-36.9,17.6,1.6,-34.4,5.73,1.60,-19.9,23.6
2014-12-06 00:28:00,0.0,1.95303,0.00029,403.406,0.031,0.0309,0.0018,139.999,45.000,30015.05987,1.95362,403.555,30.820,45.067,44.999,0.00,0.09,-272.68,-272.73,-4,322,2,17.1,1.3,-36.8,17.6,1.6,-34.4,5.73,1.58,-19.9,23.6
2014-12-06 00:29:00,0.0,1.95324,0.00051,403.422,0.028,0.0305,0.0019,139.999,45.000,30015.38479,1.95382,403.571,30.814,45.067,45.000,0.00,0.09,-272.69,-272.74,-5,322,2,17.1,1.3,-36.7,17.6,1.6,-34.3,5.73,1.57,-19.9,23.6
2014-12-06 00:30:00,0.0,1.95297,0.00044,403.398,0.029,0.0324,0.0021,139.999,45.000,30021.06665,1.95360,403.555,30.813,45.068,45.000,0.00,0.09,-272.69,-272.74,-6,322,2,17.1,1.4,-36.6,17.5,1.6,-34.4,5.73,1.56,-19.9,23.6
2014-12-06 00:31:00,0.0,1.95293,0.00040,403.417,0.036,0.0317,0.0013,140.001,45.000,30020.28948,1.95352,403.570,30.813,45.068,45.000,0.00,0.09,-272.68,-272.73,-7,322,2,17.1,1.4,-36.4,17.5,1.6,-34.4,5.73,1.56,-19.9,23.6
2014-12-06 00:32:00,0.0,1.95306,0.00039,403.425,0.032,0.0324,0.0016,140.000,45.000,30021.01311,1.95371,403.583,30.812,45.068,45.000,0.00,0.09,-272.68,-272.74,-7,322,2,17.1,1.4,-36.3,17.5,1.6,-34.4,5.73,1.56,-19.9,23.6
2014-12-06 00:33:00,0.0,1.95317,0.00055,403.387,0.033,0.0320,0.0015,140.000,45.000,30024.38473,1.95373,403.543,30.812,45.068,45.000,0.00,0.09,-272.69,-272.74,-7,322,2,17.1,1.4,-36.3,17.5,1.6,-34.4,5.73,1.58,-19.9,23.6
2014-12-06 00:34:00,0.0,1.95374,0.00058,403.391,0.037,0.0323,0.0019,140.001,45.000,30024.05172,1.95436,403.546,30.811,45.068,45.000,0.00,0.09,-272.68,-272.74,-6,321,2,17.1,1.4,-36.3,17.5,1.6,-34.4,5.73,1.59,-19.9,23.6
2014-12-06 00:35:00,0.0,1.95488,0.00034,403.443,0.034,0.0312,0.0022,139.997,45.000,30021.42408,1.95546,403.595,30.813,45.068,45.000,0.00,0.09,-272.68,-272.74,-5,320,2,17.1,1.4,-36.4,17.6,1.6,-34.4,5.73,1.61,-19.9,23.6
2014-12-06 00:36:00,0.0,1.95614,0.00058,403.462,0.027,0.0314,0.0018,140.002,45.000,30024.22298,1.95670,403.613,30.812,45.068,45.000,0.00,0.09,-272.68,-272.73,-4,320,2,17.1,1.4,-36.4,17.5,1.6,-34.4,5.73,1.62,-19.9,23.6
2014-12-06 00:37:00,0.0,1.95738,0.00064,403.352,0.054,0.0312,0.0014,140.001,45.000,30023.81990,1.95795,403.506,30.812,45.068,45.000,0.00,0.09,-272.68,-272.74,-3,321,2,17.1,1.3,-36.7,17.5,1.6,-34.4,5.73,1.63,-19.9,23.7
2014-12-06 00:38:00,0.0,1.95614,0.00056,403.295,0.055,0.0306,0.0015,140.000,45.000,30025.18902,1.95677,403.446,30.795,45.068,45.000,0.00,0.09,-272.68,-272.73,-2,320,2,17.1,1.3,-36.8,17.6,1.6,-34.4,5.73,1.63,-19.9,23.7
2014-12-06 00:39:00,0.0,1.95547,0.00038,403.226,0.036,0.0298,0.0016,140.000,45.000,30029.22593,1.95604,403.370,30.777,45.068,45.000,0.00,0.09,-272.68,-272.73,-1,321,2,17.1,1.3,-36.8,17.6,1.6,-34.4,5.73,1.65,-19.9,23.7
2014-12-06 00:40:00,0.0,1.95510,0.00050,403.204,0.034,0.0302,0.0014,139.999,45.000,30029.35536,1.95573,403.350,30.802,45.068,45.000,0.00,0.09,-272.69,-272.74,0,321,2,17.1,1.3,-37.0,17.6,1.6,-34.4,5.73,1.67,-19.9,23.6
2014-12-06 00:41:00,0.0,1.95435,0.00035,403.166,0.043,0.0297,0.0017,139.999,45.000,30029.93985,1.95491,403.309,30.809,45.068,45.000,0.00,0.09,-272.68,-272.73,0,322,2,17.1,1.3,-37.1,17.6,1.6,-34.4,5.73,1.70,-19.9,23.6
2014-12-06 00:42:00,0.0,1.95356,0.00105,403.129,0.054,0.0304,0.0014,139.999,45.000,30031.27767,1.95421,403.277,30.808,45.068,45.000,0.00,0.09,-272.69,-272.73,0,322,2,17.1,1.3,-37.1,17.6,1.6,-34.3,5.73,1.72,-19.9,23.6
2014-12-06 00:43:00,0.0,1.95322,0.00078,403.073,0.059,0.0286,0.0019,140.000,45.000,30030.44295,1.95374,403.212,30.778,45.068,45.000,0.00,0.09,-272.69,-272.74,0,322,2,17.1,1.3,-37.3,17.6,1.6,-34.4,5.73,1.76,-19.9,23.6
2014-12-06 00:44:00,0.0,1.95196,0.00069,403.009,0.042,0.0295,0.0025,140.001,45.000,30034.35812,1.95256,403.154,30.751,45.068,45.000,0.00,0.09,-272.69,-272.74,-1,323,2,17.1,1.3,-37.3,17.6,1.6,-34.4,5.73,1.80,-19.9,23.6
2014-12-06 00:45:00,0.0,1.95150,0.00037,402.991,0.026,0.0292,0.0017,140.001,45.000,30032.88911,1.95210,403.132,30.749,45.068,45.000,0.00,0.09,-272.68,-272.73,-1,324,2,17.1,1.3,-37.3,17.6,1.6,-34.4,5.73,1.86,-19.9,23.6
2014-12-06 00:46:00,0.0,1.95212,0.00080,403.061,0.050,0.0290,0.0021,139.999,45.000,30033.48862,1.95259,403.199,30.750,45.068,45.000,0.00,0.09,-272.69,-272.73,-2,324,2,17.1,1.2,-37.5,17.6,1.6,-34.4,5.73,1.92,-19.9,23.6
2014-12-06 00:47:00,0.0,1.95306,0.00046,403.097,0.034,0.0286,0.0015,139.999,45.000,30033.68556,1.95366,403.237,30.750,45.068,45.000,0.00,0.09,-272.69,-272.74,-3,324,2,17.1,1.2,-37.5,17.6,1.6,-34.4,5.73,2.00,-19.9,23.6
2014-12-06 00:48:00,0.0,1.95272,0.00037,403.046,0.037,0.0295,0.0015,139.999,45.000,30032.48803,1.95325,403.189,30.750,45.068,45.000,0.00,0.09,-272.69,-272.73,-4,324,2,17.1,1.2,-37.5,17.6,1.6,-34.4,5.73,2.08,-19.9,23.6
2014-12-06 00:49:00,0.0,1.95241,0.00061,403.033,0.034,0.0296,0.0020,139.999,45.000,30034.20912,1.95302,403.176,30.750,45.068,45.000,0.00,0.09,-272.69,-272.73,-5,324,2,17.1,1.2,-37.4,17.6,1.6,-34.4,5.73,2.17,-19.9,23.6
2014-12-06 00:50:00,0.0,1.95171,0.00032,403.017,0.036,0.0281,0.0017,139.999,45.000,30035.55659,1.95225,403.154,30.750,45.068,45.000,0.00,0.09,-272.70,-272.74,-6,324,2,17.1,1.3,-37.3,17.6,1.6,-34.4,5.73,2.26,-19.9,23.6
2014-12-06 00:51:00,0.0,1.95316,0.00070,403.027,0.033,0.0293,0.0020,140.000,45.000,30037.71845,1.95366,403.168,30.748,45.068,45.000,0.00,0.09,-272.70,-272.73,-6,325,2,17.1,1.3,-37.3,17.6,1.6,-34.4,5.73,2.36,-19.9,23.6
2014-12-06 00:52:00,0.0,1.95364,0.00067,403.048,0.045,0.0296,0.0017,140.001,45.000,30036.44399,1.95419,403.192,30.752,45.068,45.000,0.00,0.09,-272.70,-272.73,-7,324,2,17.1,1.3,-37.3,17.5,1.6,-34.4,5.73,2.46,-19.9,23.6
2014-12-06 00:53:00,0.0,1.95408,0.00053,403.057,0.030,0.0292,0.0021,140.001,45.000,30041.40982,1.95465,403.196,30.754,45.068,45.000,0.00,0.09,-272.70,-272.73,-7,325,2,17.1,1.3,-37.3,17.5,1.6,-34.4,5.73,2.57,-19.9,23.6
2014-12-06 00:54:00,0.0,1.95417,0.00037,403.076,0.035,0.0300,0.0017,140.001,45.000,30057.79885,1.95475,403.222,30.755,45.068,45.000,0.00,0.09,-272.70,-272.74,-7,327,2,17.1,1.3,-37.3,17.5,1.6,-34.4,5.73,2.68,-19.9,23.6
2014-12-06 00:55:00,0.0,1.95416,0.00041,403.069,0.025,0.0296,0.0021,139.997,45.000,30054.60824,1.95471,403.213,30.756,45.067,45.000,0.00,0.09,-272.70,-272.73,-7,327,2,17.1,1.3,-37.4,17.5,1.6,-34.4,5.73,2.83,-19.9,23.6
2014-12-06 00:56:00,0.0,1.95450,0.00035,403.094,0.036,0.0293,0.0023,140.001,45.000,30051.23727,1.95505,403.236,30.752,45.068,45.000,0.00,0.09,-272.70,-272.74,-7,326,2,17.1,1.2,-37.4,17.5,1.6,-34.4,5.73,2.89,-19.9,23.6
2014-12-06 00:57:00,0.0,1.95456,0.00055,403.069,0.043,0.0297,0.0017,140.001,45.000,30052.88335,1.95515,403.213,30.750,45.068,45.000,0.00,0.09,-272.70,-272.74,-7,326,2,17.1,1.3,-37.3,17.5,1.6,-34.6,5.73,2.90,-19.9,23.6
2014-12-06 00:58:00,0.0,1.95408,0.00090,403.074,0.027,0.0299,0.0020,140.000,45.000,30049.17426,1.95464,403.219,30.751,45.068,45.000,0.00,0.09,-272.69,-272.74,-7,325,2,17.1,1.3,-37.2,17.5,1.6,-34.6,5.73,2.88,-19.9,23.7
2014-12-06 00:59:00,0.0,1.95480,0.00038,403.092,0.035,0.0298,0.0018,140.000,45.000,30058.13779,1.95536,403.236,30.760,45.068,45.000,0.00,0.09,-272.69,-272.74,-7,326,2,17.1,1.3,-37.1,17.5,1.6,-34.6,5.73,2.82,-19.9,23.6
2014-12-06 01:00:00,0.0,1.95456,0.00045,403.092,0.042,0.0294,0.0020,139.998,45.000,30057.86876,1.95514,403.234,30.785,45.068,45.000,0.00,0.09,-272.69,-272.75,-6,326,2,17.1,1.3,-37.1,17.5,1.6,-34.6,5.73,2.70,-19.9,23.6
2014-12-06 01:01:00,0.0,1.95504,0.00032,403.073,0.037,0.0296,0.0014,140.001,45.000,30060.87854,1.95558,403.217,30.810,45.068,45.000,0.00,0.09,-272.69,-272.75,-6,326,2,17.1,1.3,-37.1,17.5,1.6,-34.6,5.73,2.53,-19.9,23.6
2014-12-06 01:02:00,0.0,1.95459,0.00039,403.082,0.036,0.0297,0.0019,139.998,45.000,30060.06509,1.95520,403.226,30.797,45.067,45.000,0.00,0.09,-272.68,-272.75,-6,326,2,17.1,1.3,-37.0,17.5,1.6,-34.6,5.73,2.33,-19.9,23.6
2014-12-06 01:03:00,0.0,1.95491,0.00053,403.095,0.034,0.0295,0.0019,139.999,45.000,30064.06558,1.95546,403.236,30.799,45.067,45.000,0.00,0.09,-272.68,-272.75,-6,327,2,17.1,1.3,-37.1,17.6,1.6,-34.6,5.73,2.11,-19.9,23.6
2014-12-06 01:04:00,0.0,1.95512,0.00036,403.119,0.038,0.0308,0.0037,140.002,45.000,30063.80109,1.95571,403.269,30.804,45.067,44.999,0.00,0.09,-272.68,-272.75,-6,327,2,17.1,1.3,-37.1,17.6,1.6,-34.6,5.73,1.89,-19.9,23.6
2014-12-06 01:05:00,0.0,1.95457,0.00054,403.099,0.031,0.0291,0.0016,140.001,45.000,30062.39629,1.95514,403.239,30.808,45.067,45.000,0.00,0.09,-272.67,-272.74,-6,327,2,17.1,1.3,-37.1,17.5,1.6,-34.6,5.73,1.69,-19.9,23.6
2014-12-06 01:06:00,0.0,1.95467,0.00028,403.117,0.028,0.0294,0.0020,139.998,45.000,30063.17767,1.95523,403.261,30.813,45.067,45.000,0.00,0.09,-272.68,-272.74,-6,327,2,17.1,1.3,-37.1,17.5,1.6,-34.6,5.73,1.54,-19.9,23.6
2014-12-06 01:07:00,0.0,1.95442,0.00054,403.086,0.038,0.0302,0.0013,139.999,45.000,30063.03277,1.95502,403.232,30.813,45.067,45.000,0.00,0.09,-272.68,-272.75,-6,327,2,17.1,1.3,-37.1,17.5,1.6,-34.6,5.73,1.46,-19.9,23.6
2014-12-06 01:08:00,0.0,1.95393,0.00054,403.066,0.043,0.0296,0.0014,139.998,45.000,30063.55250,1.95453,403.211,30.813,45.067,45.000,0.00,0.09,-272.67,-272.74,-6,327,2,17.1,1.3,-37.1,17.5,1.6,-34.6,5.73,1.46,-19.9,23.6
2014-12-06 01:09:00,0.0,1.95388,0.00052,403.057,0.023,0.0300,0.0016,140.000,45.000,30063.62835,1.95446,403.201,30.814,45.067,45.000,0.00,0.09,-272.68,-272.73,-6,327,2,17.1,1.3,-37.1,17.5,1.6,-34.5,5.73,1.54,-19.9,23.6
2014-12-06 01:10:00,0.0,1.95362,0.00032,403.079,0.032,0.0295,0.0014,140.000,45.000,30058.70872,1.95418,403.221,30.820,45.067,45.000,0.00,0.09,-272.69,-272.74,-5,326,2,17.1,1.3,-37.1,17.5,1.6,-34.6,5.73,1.69,-19.9,23.6
2014-12-06 01:11:00,0.0,1.95359,0.00037,403.078,0.033,0.0303,0.0013,140.000,45.000,30062.72280,1.95420,403.225,30.818,45.067,45.000,0.00,0.09,-272.69,-272.73,-5,326,2,17.1,1.3,-37.1,17.5,1.6,-34.6,5.73,1.88,-19.9,23.6
2014-12-06 01:12:00,0.0,1.95325,0.00060,403.071,0.025,0.0294,0.0015,139.999,45.000,30064.52676,1.95385,403.214,30.810,45.067,45.000,0.00,0.09,-272.69,-272.73,-5,327,2,17.1,1.3,-37.1,17.5,1.6,-34.6,5.73,2.12,-19.9,23.6
2014-12-06 01:13:00,0.0,1.95294,0.00045,403.038,0.041,0.0289,0.0016,139.996,45.000,30059.30496,1.95347,403.178,30.809,45.068,45.000,0.00,0.09,-272.69,-272.73,-5,326,2,17.1,1.3,-37.1,17.5,1.6,-34.6,5.73,2.35,-19.9,23.6
2014-12-06 01:14:00,0.0,1.95290,0.00038,403.039,0.029,0.0302,0.0017,140.002,45.000,30058.52165,1.95351,403.186,30.800,45.068,45.000,0.00,0.09,-272.71,-272.74,-5,326,2,17.1,1.3,-37.1,17.5,1.6,-34.6,5.73,2.55,-19.9,23.5
2014-12-06 01:15:00,0.0,1.95340,0.00040,403.056,0.027,0.0289,0.0021,140.000,45.000,30056.30286,1.95392,403.195,30.799,45.068,45.000,0.00,0.09,-272.70,-272.74,-5,325,2,17.1,1.3,-37.1,17.5,1.6,-34.6,5.73,2.71,-19.9,23.6
2014-12-06 01:16:00,0.0,1.95362,0.00041,403.070,0.034,0.0298,0.0015,139.999,45.000,30048.61897,1.95418,403.214,30.810,45.068,45.000,0.00,0.09,-272.70,-272.74,-4,325,2,17.1,1.3,-37.1,17.5,1.6,-34.6,5.73,2.82,-19.9,23.6
2014-12-06 01:17:00,0.0,1.95320,0.00044,403.080,0.026,0.0313,0.0021,140.000,45.000,30048.33751,1.95380,403.231,30.810,45.068,45.000,0.00,0.09,-272.70,-272.74,-4,324,2,17.1,1.3,-37.1,17.5,1.6,-34.6,5.73,2.88,-19.9,23.6
2014-12-06 01:18:00,0.0,1.95312,0.00046,403.070,0.036,0.0298,0.0013,139.998,45.000,30045.28268,1.95372,403.215,30.813,45.068,45.000,0.00,0.09,-272.70,-272.74,-3,324,2,17.1,1.3,-37.1,17.5,1.6,-34.6,5.73,2.90,-19.9,23.7
2014-12-06 01:19:00,0.0,1.95350,0.00028,403.063,0.033,0.0295,0.0019,139.999,45.000,30052.91484,1.95404,403.206,30.813,45.068,45.000,0.00,0.09,-272.69,-272.74,-3,325,2,17.1,1.3,-37.1,17.5,1.6,-34.6,5.73,2.89,-19.9,23.6
2014-12-06 01:20:00,0.0,1.95388,0.00039,403.084,0.032,0.0289,0.0016,139.999,45.000,30055.76471,1.95446,403.224,30.813,45.068,45.000,0.00,0.09,-272.69,-272.75,-3,325,2,17.1,1.3,-37.1,17.5,1.6,-34.6,5.73,2.83,-19.9,23.6
2014-12-06 01:21:00,0.0,1.95381,0.00030,403.073,0.025,0.0301,0.0019,140.001,45.000,30056.10524,1.95436,403.218,30.813,45.068,45.000,0.00,0.09,-272.69,-272.74,-2,325,2,17.1,1.3,-37.1,17.5,1.6,-34.6,5.73,2.71,-19.9,23.6
2014-12-06 01:22:00,0.0,1.95391,0.00037,403.087,0.038,0.0298,0.0024,139.998,45.000,30049.54844,1.95448,403.233,30.813,45.068,45.000,0.00,0.09,-272.68,-272.74,-2,325,2,17.1,1.3,-37.1,17.5,1.6,-34.6,5.73,2.57,-19.9,23.6
2014-12-06 01:23:00,0.0,1.95325,0.00034,403.042,0.030,0.0298,0.0018,140.002,45.000,30047.91555,1.95386,403.186,30.812,45.068,45.000,0.00,0.09,-272.69,-272.75,-1,324,2,17.1,1.3,-37.0,17.5,1.6,-34.6,5.73,2.41,-19.9,23.6
2014-12-06 01:24:00,0.0,1.95299,0.00037,403.067,0.027,0.0302,0.0012,139.999,45.000,30048.74323,1.95355,403.213,30.813,45.068,45.000,0.00,0.09,-272.68,-272.75,-1,325,2,17.1,1.3,-37.0,17.5,1.6,-34.6,5.73,2.24,-19.9,23.6
2014-12-06 01:25:00,0.0,1.95332,0.00027,403.059,0.035,0.0302,0.0018,140.001,45.000,30049.42455,1.95390,403.205,30.810,45.068,45.000,0.00,0.09,-272.67,-272.74,-1,325,2,17.1,1.3,-36.9,17.5,1.6,-34.6,5.73,2.07,-19.9,23.6
2014-12-06 01:26:00,0.0,1.95342,0.00037,403.073,0.029,0.0299,0.0019,139.999,45.000,30046.69889,1.95399,403.219,30.813,45.068,45.000,0.00,0.09,-272.68,-272.74,-0,325,2,17.1,1.3,-36.8,17.5,1.6,-34.5,5.73,1.90,-19.9,23.6
2014-12-06 01:27:00,0.0,1.95359,0.00033,403.078,0.028,0.0306,0.0013,139.997,45.000,30048.58969,1.95417,403.225,30.813,45.068,45.000,0.00,0.09,-272.68,-272.75,-0,325,2,17.1,1.3,-36.9,17.5,1.6,-34.6,5.73,1.76,-19.9,23.6
2014-12-06 01:28:00,0.0,1.95397,0.00040,403.075,0.024,0.0307,0.0027,139.999,45.000,30046.30693,1.95454,403.223,30.813,45.067,45.000,0.00,0.09,-272.67,-272.75,0,325,2,17.1,1.3,-36.9,17.5,1.6,-34.6,5.73,1.63,-19.9,23.6
2014-12-06 01:29:00,0.0,1.95412,0.00033,403.089,0.029,0.0304,0.0014,139.997,45.000,30045.53087,1.95471,403.236,30.814,45.068,45.000,0.00,0.09,-272.67,-272.74,0,325,2,17.1,1.3,-36.9,17.5,1.6,-34.6,5.73,1.54,-19.9,23.6
2014-12-06 01:30:00,0.0,1.95417,0.00033,403.109,0.041,0.0301,0.0020,140.003,45.000,30042.89149,1.95476,403.254,30.810,45.067,45.000,0.00,0.09,-272.67,-272.74,0,325,2,17.1,1.3,-36.9,17.5,1.6,-34.6,5.73,1.47,-19.9,23.6
2014-12-06 01:31:00,0.0,1.95408,0.00027,403.107,0.027,0.0308,0.0024,140.001,45.000,30047.69162,1.95465,403.256,30.796,45.068,45.000,0.00,0.09,-272.68,-272.75,1,325,2,17.1,1.3,-36.9,17.5,1.6,-34.6,5.73,1.45,-19.9,23.6
2014-12-06 01:32:00,0.0,1.95388,0.00041,403.097,0.035,0.0306,0.0021,139.999,45.000,30045.65026,1.95447,403.245,30.779,45.068,45.000,0.00,0.09,-272.67,-272.74,1,325,2,17.1,1.3,-36.9,17.5,1.6,-34.6,5.73,1.47,-19.9,23.6
2014-12-06 01:33:00,0.0,1.95366,0.00048,403.110,0.032,0.0307,0.0011,139.999,45.000,30049.01516,1.95424,403.259,30.769,45.068,45.000,0.00,0.09,-272.68,-272.74,1,326,2,17.1,1.3,-36.9,17.5,1.6,-34.6,5.73,1.51,-19.9,23.5
2014-12-06 01:34:00,0.0,1.95356,0.00034,403.091,0.029,0.0298,0.0015,140.000,45.000,30046.82040,1.95416,403.236,30.753,45.068,45.000,0.00,0.09,-272.69,-272.74,0,326,2,17.1,1.3,-36.8,17.5,1.6,-34.6,5.73,1.57,-19.9,23.6
2014-12-06 01:35:00,0.0,1.95333,0.00043,403.082,0.019,0.0307,0.0017,139.998,45.000,30048.12222,1.95391,403.229,30.751,45.068,45.000,0.00,0.09,-272.69,-272.73,0,326,2,17.1,1.3,-36.7,17.5,1.6,-34.6,5.73,1.65,-19.9,23.6
2014-12-06 01:36:00,0.0,1.95339,0.00045,403.083,0.039,0.0314,0.0019,140.000,45.000,30040.82482,1.95401,403.235,30.751,45.068,45.000,0.00,0.09,-272.68,-272.73,-1,325,2,17.1,1.3,-36.7,17.5,1.6,-34.6,5.73,1.74,-20.0,23.6
2014-12-06 01:37:00,0.0,1.95322,0.00030,403.101,0.034,0.0317,0.0016,140.001,45.000,30041.21566,1.95385,403.255,30.756,45.068,45.000,0.00,0.09,-272.69,-272.74,-1,325,2,17.1,1.4,-36.6,17.5,1.6,-34.6,5.73,1.83,-19.9,23.6
2014-12-06 01:38:00,0.0,1.95316,0.00034,403.106,0.033,0.0307,0.0017,140.000,45.000,30043.69596,1.95375,403.254,30.752,45.068,45.001,0.00,0.09,-272.69,-272.73,-2,326,2,17.1,1.4,-36.6,17.5,1.6,-34.5,5.73,1.93,-19.9,23.6
2014-12-06 01:39:00,0.0,1.95326,0.00045,403.103,0.026,0.0304,0.0020,140.000,45.000,30037.96521,1.95384,403.252,30.750,45.068,45.000,0.00,0.09,-272.68,-272.73,-3,325,2,17.1,1.3,-36.7,17.5,1.6,-34.6,5.73,2.03,-20.0,23.6
2014-12-06 01:40:00,0.0,1.95371,0.00041,403.094,0.038,0.0299,0.0020,139.998,45.000,30038.42108,1.95426,403.238,30.752,45.068,45.001,0.00,0.09,-272.69,-272.73,-3,326,2,17.1,1.3,-37.0,17.6,1.6,-34.6,5.73,2.13,-20.0,23.6
2014-12-06 01:41:00,0.0,1.95366,0.00035,403.100,0.025,0.0296,0.0018,139.999,45.000,30040.16796,1.95423,403.244,30.760,45.068,45.000,0.00,0.09,-272.69,-272.74,-4,326,2,17.1,1.3,-37.3,17.6,1.6,-34.5,5.73,2.23,-20.0,23.6
2014-12-06 01:42:00,0.0,1.95378,0.00041,403.124,0.025,0.0284,0.0019,140.000,45.000,30043.13503,1.95435,403.261,30.763,45.068,45.000,0.00,0.09,-272.69,-272.73,-5,326,2,17.1,1.2,-37.4,17.5,1.6,-34.5,5.73,2.36,-19.9,23.6
2014-12-06 01:43:00,0.0,1.95319,0.00041,403.109,0.030,0.0291,0.0018,140.000,45.000,30037.88576,1.95376,403.250,30.776,45.068,45.000,0.00,0.09,-272.70,-272.74,-6,325,2,17.1,1.2,-37.5,17.5,1.6,-34.6,5.73,2.47,-19.9,23.6
2014-12-06 01:44:00,0.0,1.95315,0.00044,403.116,0.025,0.0288,0.0014,140.000,45.000,30037.21223,1.95370,403.256,30.754,45.068,45.000,0.00,0.09,-272.70,-272.74,-6,324,2,17.1,1.2,-37.5,17.6,1.6,-34.6,5.73,2.56,-20.0,23.6
2014-12-06 01:45:00,0.0,1.95324,0.00048,403.094,0.031,0.0288,0.0021,139.998,45.000,30037.81954,1.95378,403.234,30.755,45.068,45.000,0.00,0.09,-272.69,-272.74,-7,324,2,17.1,1.2,-37.5,17.5,1.6,-34.5,5.73,2.64,-20.0,23.6
2014-12-06 01:46:00,0.0,1.95343,0.00025,403.107,0.031,0.0283,0.0017,139.997,45.000,30041.24057,1.95398,403.245,30.752,45.068,45.000,0.00,0.09,-272.70,-272.73,-7,325,2,17.1,1.2,-37.5,17.5,1.6,-34.6,5.73,2.73,-20.0,23.6